RH
34 32 31 31 31 31 31 30 29 29 30 30 29 26 24 26 29 32 33 33 31 31 35 40 42 45 48 44 41 41 39 36 35 34 34 35 36 37 40 41 42 42 40 39 37 36 36 37 37 39 42 47 53 59 62 65 67 67 64 61 60 58 55 53 52 52 53 55 56 56 56 56 57 59 61 63 64 65 66 66 67 67 68 69 69
35 35 34 33 32 32 31 30 29 28 27 27 26 25 24 26 29 31 32 32 30 31 37 42 44 45 45 43 41 41 38 35 35 35 36 37 38 40 43 44 45 45 44 43 42 40 40 40 39 40 41 44 50 56 61 64 67 68 66 63 61 58 54 53 52 52 53 55 57 58 57 57 58 60 62 63 63 63 65 66 66 67 68 68 68
37 37 37 36 34 33 32 30 29 27 26 24 23 23 23 25 29 32 32 31 30 34 40 44 45 44 44 43 41 39 37 37 37 38 40 41 42 44 45 45 45 45 47 47 46 45 44 43 42 42 42 43 47 53 59 62 65 67 67 64 61 58 54 53 53 53 54 57 58 59 58 57 58 61 62 62 62 62 62 62 62 63 64 64 63
39 39 39 38 36 34 33 31 30 28 25 24 23 23 24 27 30 31 31 30 32 37 42 46 46 45 44 42 39 37 38 39 40 41 44 46 48 48 48 46 46 47 49 49 49 48 47 46 45 45 45 45 47 51 56 60 61 64 65 64 59 55 54 53 53 53 56 59 60 60 59 58 57 59 60 61 61 61 60 59 58 58 58 58 57
41 40 41 41 39 37 34 32 31 28 26 26 26 26 27 28 29 29 30 30 33 39 45 48 47 44 42 40 38 37 39 41 43 45 47 50 51 51 51 50 48 49 51 51 51 51 49 48 46 46 47 46 46 48 53 57 59 61 64 62 57 54 55 56 55 55 57 59 59 60 61 59 57 57 58 58 59 59 60 60 60 58 56 55 55
42 42 42 42 40 39 36 33 32 30 27 26 29 30 29 27 27 27 29 31 35 42 47 47 45 43 41 39 39 40 41 43 45 47 49 51 52 53 53 53 50 50 52 51 51 52 52 50 48 46 46 45 44 46 51 55 57 59 61 60 57 55 55 57 57 58 58 59 59 61 62 61 59 58 57 57 58 60 61 61 61 60 57 55 52
41 42 42 41 39 39 38 35 32 32 29 25 27 31 30 26 24 25 28 30 35 43 48 47 44 43 42 40 41 42 43 45 47 47 49 50 52 53 54 55 53 52 52 51 51 52 54 53 50 48 46 44 45 46 50 55 58 60 62 61 59 58 56 57 59 60 61 61 61 61 62 62 60 59 59 60 62 63 64 63 60 57 54 51 48
41 41 42 42 39 39 39 37 34 33 32 28 26 28 29 27 24 24 27 29 33 42 48 45 43 44 43 42 43 44 46 47 46 47 49 50 52 53 54 55 55 53 53 53 52 53 55 55 53 51 48 46 47 48 51 56 60 63 64 62 60 59 58 57 59 61 63 63 62 61 61 62 63 63 64 65 66 66 66 64 59 53 49 47 45
40 40 41 41 40 39 40 38 36 35 34 31 27 27 28 28 25 25 26 28 33 42 46 43 42 43 44 44 44 45 46 46 45 46 49 51 52 53 53 54 54 55 57 57 54 52 54 56 56 54 52 52 51 50 51 55 61 64 64 61 61 61 60 59 60 62 64 63 61 60 62 64 66 67 68 69 69 68 65 62 56 51 49 47 44
41 40 40 39 40 40 40 39 36 36 36 34 30 27 28 29 28 27 26 27 35 43 45 41 41 43 44 45 45 45 45 46 46 48 50 52 54 53 52 52 54 58 61 61 56 51 51 55 57 56 56 56 56 54 53 56 60 63 64 62 62 64 64 62 61 61 62 61 60 60 62 66 69 69 70 69 69 68 64 59 54 51 49 48 44
42 40 39 39 40 42 42 40 37 36 37 36 33 30 29 30 30 29 27 29 36 43 43 40 40 43 44 45 45 44 44 46 48 49 51 54 55 54 52 53 56 59 61 61 59 55 52 54 58 57 57 58 58 56 54 56 59 62 62 63 64 65 66 64 61 60 61 62 61 60 63 66 69 70 70 70 69 67 62 56 52 51 50 50 48
43 41 40 41 42 42 42 42 40 37 37 38 36 33 31 31 31 31 30 29 34 40 40 38 40 42 44 45 44 42 44 46 48 49 52 55 57 55 55 57 59 61 62 62 62 60 58 58 57 54 54 57 58 56 54 55 57 58 61 65 67 67 67 65 62 61 62 61 61 62 64 66 68 69 68 67 66 62 56 53 52 52 53 54 53
42 41 42 42 42 42 43 44 42 40 38 38 39 36 34 32 31 31 30 30 32 36 35 35 38 41 43 44 42 42 44 46 47 49 53 58 60 59 60 63 64 64 65 66 66 64 63 63 57 51 53 56 55 55 54 54 56 58 63 70 72 70 69 66 63 62 62 61 61 62 62 65 69 68 63 59 58 56 53 53 53 53 55 56 55
41 41 41 42 42 42 43 44 43 42 40 40 41 39 36 34 32 31 31 32 32 32 31 32 35 39 41 42 42 41 43 45 46 50 56 62 64 63 65 67 68 69 69 70 70 66 66 66 58 51 52 54 54 54 52 52 56 60 65 73 75 70 67 65 63 62 61 60 60 61 61 62 63 60 55 53 53 52 52 53 54 56 58 57 53
39 40 40 41 41 41 42 43 43 43 42 42 42 40 37 36 35 33 33 31 30 30 30 30 32 36 39 40 41 42 42 44 48 54 60 65 67 66 67 68 69 71 72 72 71 69 70 72 64 53 51 53 53 53 51 52 57 61 65 73 74 68 64 64 62 59 59 59 60 60 60 59 55 51 50 50 51 52 53 55 57 58 57 54 50
38 39 39 40 40 39 39 40 42 44 44 44 42 40 39 37 36 35 33 31 31 32 31 29 30 34 37 39 41 42 42 47 53 58 62 67 69 69 68 66 67 70 71 71 72 71 72 72 66 57 55 54 53 53 52 53 58 63 69 75 73 67 65 63 58 56 58 60 59 58 56 53 48 45 45 48 51 54 56 57 57 56 52 50 48
38 39 38 39 40 40 38 38 40 44 45 45 43 41 39 38 37 36 34 33 33 32 29 29 31 33 36 39 41 42 45 51 56 61 65 68 70 70 66 64 66 69 71 71 72 74 73 68 64 60 58 55 53 53 53 55 60 67 74 76 71 66 65 61 57 57 59 58 56 53 48 43 41 41 44 49 53 54 55 54 52 50 48 47 47
39 39 39 39 39 40 40 39 41 44 45 45 43 41 39 39 38 36 35 34 33 31 32 33 34 34 36 38 40 43 48 53 58 63 66 67 68 67 66 67 70 73 74 74 74 75 73 67 64 63 59 56 54 53 54 57 62 66 71 71 68 65 62 58 56 57 56 54 50 45 40 38 40 43 47 50 51 51 50 48 46 45 45 45 44
39 39 40 39 39 40 41 42 43 45 45 44 44 42 40 39 39 37 37 37 36 37 39 39 37 36 36 38 42 47 51 55 60 64 65 65 65 65 67 70 73 75 77 75 74 75 72 66 63 62 58 56 56 54 56 60 64 66 68 67 64 61 57 56 56 55 52 48 43 39 39 41 44 46 47 47 47 47 45 43 41 41 41 41 40
36 38 40 41 41 42 42 42 44 45 45 45 45 44 41 40 40 40 40 42 43 44 44 44 42 39 38 42 47 51 54 57 60 63 63 63 63 63 65 68 71 73 73 71 73 77 72 64 61 60 57 55 55 54 57 61 63 64 65 63 59 57 55 55 55 52 48 43 40 40 44 46 46 45 44 44 43 41 38 36 35 35 35 35 36
35 38 41 43 43 42 42 42 43 44 45 46 47 46 44 43 41 41 43 47 48 49 47 46 44 42 43 47 51 53 55 58 61 63 63 62 61 61 63 66 68 68 67 69 73 75 71 66 63 60 56 53 50 50 54 58 60 61 61 59 57 56 55 54 52 49 45 42 43 47 48 46 43 42 41 40 38 35 31 30 30 31 32 34 36
36 39 43 45 44 44 44 44 44 44 46 48 48 47 45 44 42 42 45 49 50 49 48 48 47 47 49 52 54 55 57 60 63 64 62 61 61 61 62 64 65 64 64 68 69 68 68 68 63 57 52 49 47 48 52 56 58 58 57 56 56 55 54 52 49 45 43 45 48 49 46 42 40 38 36 34 31 30 29 29 31 34 36 38 38
38 40 42 44 45 46 47 47 45 45 46 48 48 48 47 47 46 44 45 48 51 50 51 51 51 53 54 55 56 59 61 64 66 64 62 61 61 62 62 62 62 63 65 67 66 63 63 62 55 49 47 46 45 48 52 53 54 54 53 54 55 55 53 48 44 43 45 48 48 46 42 39 37 33 31 29 28 28 29 31 33 36 38 39 38
40 41 41 41 43 45 47 47 46 46 46 47 49 50 49 49 48 46 45 48 51 52 54 55 56 58 58 59 62 66 68 69 67 63 62 63 63 63 63 61 61 64 64 64 63 59 56 54 49 45 44 44 45 47 49 50 50 50 51 52 53 53 49 44 42 44 46 48 46 42 39 36 32 30 28 28 29 30 31 33 35 37 38 38 37
41 42 41 41 42 42 43 45 44 44 45 47 48 51 51 51 52 49 47 47 50 53 55 56 59 61 62 66 70 71 72 73 68 62 62 64 64 64 61 59 62 64 61 60 59 55 52 50 46 42 42 43 45 46 46 46 46 47 48 49 49 49 45 42 43 45 46 45 42 38 35 32 30 29 28 29 29 30 32 34 36 37 37 37 35
41 41 40 41 41 41 43 44 43 43 44 45 47 50 52 52 53 54 55 53 52 54 56 57 59 63 65 69 70 69 71 75 70 62 61 64 64 62 60 60 62 61 58 58 57 53 51 49 44 42 43 44 44 44 43 43 43 44 44 45 47 46 43 42 43 45 45 42 38 34 31 30 29 28 28 29 29 29 30 32 34 35 35 34 32
38 39 38 37 39 41 42 43 43 43 43 44 46 49 52 53 52 54 59 60 57 56 56 55 58 62 63 65 66 67 73 79 73 63 61 63 63 61 60 62 63 59 57 59 58 54 51 48 45 44 44 43 41 40 39 40 40 40 41 44 46 44 41 41 44 44 41 37 33 30 29 28 28 29 29 29 29 28 28 29 30 31 32 31 29
34 35 36 37 38 40 41 42 44 45 45 45 45 45 48 52 52 51 54 58 59 58 57 59 63 65 64 65 67 69 74 77 72 65 61 60 59 59 61 63 61 58 58 60 58 54 50 48 47 45 42 40 39 37 37 38 37 37 41 44 43 40 40 43 43 40 36 33 30 28 27 28 29 29 30 29 28 27 26 26 26 27 28 29 27
34 34 35 36 36 36 37 40 43 46 47 47 47 47 46 48 50 52 52 55 57 56 57 63 67 67 67 69 67 65 66 69 68 65 61 58 57 58 61 63 60 58 60 61 57 53 51 49 46 43 39 37 37 37 37 36 34 36 40 41 39 38 41 42 40 37 34 30 28 27 26 27 29 30 29 29 28 26 25 25 25 25 26 27 26
38 37 37 36 36 36 36 38 40 44 48 49 50 52 52 49 50 51 51 55 62 65 67 69 67 65 69 71 67 61 59 59 60 63 62 59 57 59 62 62 59 59 61 59 55 53 51 48 44 39 36 35 36 37 37 35 35 38 40 39 38 39 40 40 38 34 31 28 26 26 26 27 29 29 28 28 27 25 24 23 23 24 25 25 23
40 40 39 39 38 39 39 39 40 43 45 47 50 55 58 58 58 55 53 58 69 75 77 76 73 70 72 73 68 62 57 53 57 62 60 57 59 63 64 61 59 59 59 57 54 53 50 45 40 36 35 36 38 39 39 38 40 42 42 40 39 39 39 38 35 32 29 27 26 25 26 27 28 28 28 27 26 24 22 21 22 24 23 22 20
39 38 38 39 39 39 40 42 44 46 48 51 52 55 58 61 62 61 61 66 73 75 76 76 76 76 75 72 68 61 56 56 61 61 55 54 60 64 63 61 60 60 58 55 53 50 45 40 35 33 34 37 40 41 41 42 44 45 43 41 39 38 37 34 31 28 27 26 25 25 25 27 28 28 27 27 25 22 20 21 22 22 21 19 17
40 41 42 44 46 45 45 46 47 49 52 54 54 53 54 56 59 61 63 67 75 79 79 78 77 76 74 70 63 55 53 58 62 58 53 57 63 64 62 62 62 59 56 53 50 45 39 35 33 33 35 38 40 41 43 45 46 46 43 39 38 37 35 31 27 25 24 24 24 25 26 27 28 28 27 25 22 20 19 20 21 20 18 17 15
44 45 49 56 61 60 55 53 54 56 57 57 58 59 57 55 56 57 56 60 70 78 81 82 79 72 66 62 57 53 55 59 58 55 57 62 64 63 62 62 61 57 54 50 46 40 35 33 32 35 38 40 40 41 44 46 47 45 41 38 36 35 32 29 26 24 23 23 24 25 27 28 28 27 26 23 20 19 19 20 19 18 16 16 16
47 47 53 67 80 81 74 66 62 57 53 51 55 64 70 68 64 63 60 60 64 70 76 83 82 70 60 56 55 55 57 57 55 57 63 65 63 62 63 61 58 55 53 49 43 37 33 32 33 36 39 40 40 41 45 47 47 43 38 36 35 32 30 27 25 24 24 24 25 26 28 28 26 25 24 22 20 19 19 18 17 16 15 16 17
50 52 58 72 87 93 91 85 74 63 55 51 52 64 77 79 76 77 77 74 70 69 72 77 77 67 59 57 57 57 57 57 59 64 67 66 63 62 61 58 55 53 51 46 41 36 34 34 36 38 39 38 39 42 46 47 45 41 37 35 33 31 28 26 25 25 25 25 26 27 27 25 24 23 23 21 20 19 18 16 15 14 15 17 17
58 62 67 76 85 89 92 93 87 77 71 66 60 60 68 75 79 84 85 80 76 74 72 72 70 65 58 55 56 58 60 63 66 68 67 67 66 62 58 56 54 52 48 42 37 34 33 35 38 40 38 37 40 44 47 47 43 40 36 33 32 30 28 27 27 26 26 26 27 26 25 24 23 22 22 21 20 17 16 15 14 13 14 16 16
63 67 73 78 83 87 90 93 90 83 78 74 66 57 58 67 77 82 80 76 73 72 71 70 68 63 57 56 60 64 66 68 68 66 65 67 66 62 58 56 55 51 46 39 34 33 33 35 38 39 37 39 44 47 48 46 43 38 34 32 32 31 29 28 28 27 26 26 25 24 23 23 23 22 21 21 19 17 15 14 13 12 12 13 14
68 71 76 78 82 86 88 88 87 81 75 72 69 63 63 70 76 77 75 73 71 68 67 67 65 61 59 61 66 68 68 66 65 64 64 65 64 61 58 56 52 47 42 36 33 33 35 37 38 38 39 43 48 49 48 45 41 36 33 32 32 30 28 27 25 24 23 23 22 22 22 23 23 22 21 21 19 17 16 15 13 11 11 11 12
76 76 78 79 82 85 85 84 81 75 69 68 72 73 74 75 76 74 72 71 69 66 65 66 66 65 66 67 67 67 67 67 65 65 64 64 62 59 56 52 48 44 39 36 36 37 38 39 39 40 44 48 51 50 46 42 37 34 33 32 31 28 26 25 24 23 22 23 22 22 23 24 23 23 22 21 19 18 17 16 13 11 10 10 11
76 76 77 78 80 83 84 84 82 78 73 71 72 73 73 73 74 73 73 73 72 70 70 70 70 70 71 71 70 70 69 67 65 63 62 59 57 55 52 49 46 42 40 39 41 41 41 41 43 45 49 52 51 48 43 38 36 34 33 32 30 29 28 28 26 25 25 25 24 24 24 24 23 23 22 21 21 19 18 16 13 10 9 10 12
71 72 75 78 81 82 81 80 79 78 77 75 72 71 72 73 73 72 72 74 73 72 72 73 72 72 73 75 74 72 68 64 60 59 58 57 56 54 53 50 46 43 42 44 44 43 43 45 48 51 53 52 48 43 39 37 36 35 33 32 32 32 31 30 27 26 26 26 25 25 24 23 22 22 21 21 21 20 18 15 12 9 9 10 12
72 72 75 78 82 83 82 79 76 74 74 76 76 75 74 75 74 72 72 73 72 72 73 74 74 75 77 76 72 67 63 61 59 59 59 60 59 57 54 50 47 45 46 46 45 45 47 50 52 53 52 49 43 39 38 38 37 35 34 33 33 33 31 29 27 26 26 26 25 24 22 21 20 20 21 21 21 20 18 15 11 9 9 10 12
80 80 80 80 81 82 83 83 82 80 77 76 76 76 75 75 75 73 72 72 71 72 72 72 74 76 75 70 65 62 61 61 62 63 63 64 62 57 53 48 46 46 47 46 47 49 52 54 55 53 50 45 40 38 39 39 37 35 34 33 32 30 29 27 26 25 25 24 23 21 20 19 19 20 20 20 20 19 16 13 10 9 9 10 12
83 81 83 83 82 80 80 80 82 83 82 78 77 76 75 75 74 74 73 74 74 73 71 70 71 73 68 62 58 59 61 64 66 66 66 64 60 55 50 46 45 47 47 48 50 54 56 57 55 52 48 43 40 40 40 38 35 33 32 31 29 27 26 25 24 23 22 21 20 19 18 18 18 19 19 20 19 17 14 11 10 9 9 11 14
82 81 82 82 81 81 81 81 82 83 82 80 79 78 76 74 73 73 73 73 72 70 68 66 66 65 61 59 59 61 63 65 66 64 62 58 52 47 45 45 47 48 49 50 53 58 59 58 56 52 47 42 40 40 39 36 33 31 30 30 29 27 25 23 22 21 21 21 20 18 17 17 18 19 19 18 17 15 12 11 10 9 9 12 15
84 84 84 83 81 83 85 87 86 86 86 85 84 82 79 77 77 75 71 67 66 67 67 67 66 64 63 63 63 61 58 58 59 58 55 50 45 43 45 47 49 50 52 55 58 60 59 58 55 51 46 43 42 40 38 35 31 29 28 27 27 25 23 22 22 22 22 22 20 18 17 17 18 18 18 17 16 13 11 11 10 9 10 13 16
83 86 88 87 84 85 88 89 89 89 89 88 87 86 84 83 82 80 77 73 71 71 70 68 66 64 62 61 59 56 54 55 57 56 52 48 45 44 45 47 48 50 54 58 60 59 59 57 54 50 46 44 42 41 39 36 33 30 28 26 24 23 22 22 22 23 22 21 19 17 16 16 18 18 17 15 14 12 11 11 10 9 11 14 17
86 89 92 90 87 86 87 89 90 92 92 89 88 88 87 85 82 80 79 78 76 73 69 65 62 61 60 59 57 56 56 57 57 55 51 48 46 45 47 49 52 56 59 60 59 57 56 55 52 48 46 44 42 42 40 37 34 31 28 25 24 23 23 22 21 20 20 18 16 16 15 15 15 15 14 12 12 11 11 11 10 10 12 14 16
89 90 90 91 91 91 90 89 89 89 90 91 90 90 90 89 86 82 80 80 79 78 75 71 67 64 64 64 62 61 62 62 60 56 52 50 50 52 55 58 60 61 61 59 56 54 53 52 50 49 48 47 45 43 39 36 33 30 27 24 23 23 22 19 16 16 17 16 15 14 13 11 10 11 11 11 11 11 11 11 10 11 12 14 16
89 90 91 91 92 92 91 89 88 88 90 92 93 91 90 90 90 87 84 83 83 83 83 80 77 73 70 70 70 69 67 63 58 53 52 53 54 57 60 62 63 61 57 54 52 52 51 48 46 46 46 45 42 37 33 30 29 28 25 23 23 23 21 17 13 12 13 13 12 11 9 8 8 9 10 10 11 11 11 11 11 11 13 15 17